Time,TemperatureF,DewpointF,PressureIn,WindDirection,WindDirectionDegrees,WindSpeedMPH,WindSpeedGustMPH,Humidity,HourlyPrecipIn,Conditions,Clouds,dailyrainin,SoftwareType,DateUTC
2014-10-20 00:02:00,55.9,44.3,29.85,East,85,0.0,1.0,65,0.00,,,0.00,Wunderground v.1.15,2014-10-20 07:02:00,
2014-10-20 00:07:00,55.9,43.9,29.85,East,85,0.0,1.0,64,0.00,,,0.00,Wunderground v.1.15,2014-10-20 07:07:00,
2014-10-20 00:12:00,55.9,43.9,29.85,East,85,0.0,1.0,64,0.00,,,0.00,Wunderground v.1.15,2014-10-20 07:12:00,
2014-10-20 00:18:00,56.1,44.1,29.85,East,86,1.0,2.0,64,0.00,,,0.00,Wunderground v.1.15,2014-10-20 07:18:00,
2014-10-20 00:23:00,56.3,44.7,29.85,East,86,1.0,1.0,65,0.00,,,0.00,Wunderground v.1.15,2014-10-20 07:23:00,
2014-10-20 00:28:00,56.3,44.7,29.85,East,85,1.0,2.0,65,0.00,,,0.00,Wunderground v.1.15,2014-10-20 07:28:00,
2014-10-20 00:34:00,56.3,44.7,29.85,East,85,0.0,1.0,65,0.00,,,0.00,Wunderground v.1.15,2014-10-20 07:34:00,
2014-10-20 00:39:00,56.1,44.9,29.85,East,85,0.0,1.0,66,0.00,,,0.00,Wunderground v.1.15,2014-10-20 07:39:00,
2014-10-20 00:44:00,56.1,44.9,29.85,East,85,0.0,1.0,66,0.00,,,0.00,Wunderground v.1.15,2014-10-20 07:44:00,
2014-10-20 00:50:00,56.0,44.8,29.84,East,85,0.0,0.0,66,0.00,,,0.00,Wunderground v.1.15,2014-10-20 07:50:00,
2014-10-20 00:55:00,56.1,45.3,29.84,East,85,2.0,2.0,67,0.00,,,0.00,Wunderground v.1.15,2014-10-20 07:55:00,
2014-10-20 01:00:00,56.1,44.9,29.84,East,85,0.0,1.0,66,0.00,,,0.00,Wunderground v.1.15,2014-10-20 08:00:00,
2014-10-20 01:05:00,56.1,44.5,29.84,East,85,0.0,1.0,65,0.00,,,0.00,Wunderground v.1.15,2014-10-20 08:05:00,
2014-10-20 01:11:00,56.2,44.6,29.84,East,85,0.0,0.0,65,0.00,,,0.00,Wunderground v.1.15,2014-10-20 08:11:00,
2014-10-20 01:16:00,56.2,44.2,29.84,East,85,0.0,1.0,64,0.00,,,0.00,Wunderground v.1.15,2014-10-20 08:16:00,
2014-10-20 01:21:00,56.2,44.2,29.84,East,85,2.0,2.0,64,0.00,,,0.00,Wunderground v.1.15,2014-10-20 08:21:00,
2014-10-20 01:27:00,56.2,43.8,29.84,East,85,1.0,2.0,63,0.00,,,0.00,Wunderground v.1.15,2014-10-20 08:27:00,
2014-10-20 01:32:00,56.2,44.2,29.84,East,85,1.0,1.0,64,0.00,,,0.00,Wunderground v.1.15,2014-10-20 08:32:00,
2014-10-20 01:37:00,56.2,43.8,29.84,East,85,0.0,1.0,63,0.00,,,0.00,Wunderground v.1.15,2014-10-20 08:37:00,
2014-10-20 01:43:00,56.1,43.7,29.84,East,85,1.0,1.0,63,0.00,,,0.00,Wunderground v.1.15,2014-10-20 08:43:00,
2014-10-20 01:49:00,56.2,43.3,29.84,East,85,0.0,1.0,62,0.00,,,0.00,Wunderground v.1.15,2014-10-20 08:49:00,
2014-10-20 01:54:00,56.1,43.7,29.84,East,85,0.0,1.0,63,0.00,,,0.00,Wunderground v.1.15,2014-10-20 08:54:00,
2014-10-20 01:59:00,55.9,43.5,29.84,East,85,0.0,1.0,63,0.00,,,0.00,Wunderground v.1.15,2014-10-20 08:59:00,
2014-10-20 02:04:00,55.7,42.9,29.84,East,86,0.0,1.0,62,0.00,,,0.00,Wunderground v.1.15,2014-10-20 09:04:00,
2014-10-20 02:09:00,55.7,43.3,29.84,East,85,0.0,2.0,63,0.00,,,0.00,Wunderground v.1.15,2014-10-20 09:09:00,
2014-10-20 02:14:00,55.5,42.7,29.84,East,85,1.0,2.0,62,0.00,,,0.00,Wunderground v.1.15,2014-10-20 09:14:00,
2014-10-20 02:19:00,55.6,42.8,29.85,East,85,0.0,2.0,62,0.00,,,0.00,Wunderground v.1.15,2014-10-20 09:19:00,
2014-10-20 02:24:00,55.6,42.8,29.85,East,85,1.0,2.0,62,0.00,,,0.00,Wunderground v.1.15,2014-10-20 09:24:00,
2014-10-20 02:29:00,55.6,42.8,29.85,East,85,1.0,2.0,62,0.00,,,0.00,Wunderground v.1.15,2014-10-20 09:29:00,
2014-10-20 02:34:00,55.7,42.5,29.85,East,85,2.0,2.0,61,0.00,,,0.00,Wunderground v.1.15,2014-10-20 09:34:00,
2014-10-20 02:39:00,55.8,42.1,29.85,East,85,1.0,2.0,60,0.00,,,0.00,Wunderground v.1.15,2014-10-20 09:39:00,
2014-10-20 02:44:00,55.9,42.2,29.85,East,85,1.0,2.0,60,0.00,,,0.00,Wunderground v.1.15,2014-10-20 09:44:00,
2014-10-20 02:49:00,55.8,42.1,29.86,East,85,1.0,3.0,60,0.00,,,0.00,Wunderground v.1.15,2014-10-20 09:49:00,
2014-10-20 02:54:00,55.7,42.9,29.86,East,85,1.0,2.0,62,0.00,,,0.00,Wunderground v.1.15,2014-10-20 09:54:00,
2014-10-20 02:59:00,55.4,43.0,29.86,East,85,0.0,2.0,63,0.00,,,0.00,Wunderground v.1.15,2014-10-20 09:59:00,
2014-10-20 03:04:00,55.2,42.8,29.86,East,85,0.0,1.0,63,0.00,,,0.00,Wunderground v.1.15,2014-10-20 10:04:00,
2014-10-20 03:09:00,55.0,43.0,29.85,East,85,0.0,1.0,64,0.00,,,0.00,Wunderground v.1.15,2014-10-20 10:09:00,
2014-10-20 03:14:00,54.6,43.5,29.85,East,85,0.0,0.0,66,0.00,,,0.00,Wunderground v.1.15,2014-10-20 10:14:00,
2014-10-20 03:19:00,54.3,43.2,29.85,East,85,0.0,1.0,66,0.00,,,0.00,Wunderground v.1.15,2014-10-20 10:19:00,
2014-10-20 03:24:00,54.0,43.3,29.85,East,85,0.0,1.0,67,0.00,,,0.00,Wunderground v.1.15,2014-10-20 10:24:00,
2014-10-20 03:29:00,53.8,43.5,29.85,East,85,0.0,1.0,68,0.00,,,0.00,Wunderground v.1.15,2014-10-20 10:29:00,
2014-10-20 03:34:00,53.6,43.7,29.85,East,85,0.0,0.0,69,0.00,,,0.00,Wunderground v.1.15,2014-10-20 10:34:00,
2014-10-20 03:39:00,53.4,43.9,29.85,East,85,0.0,0.0,70,0.00,,,0.00,Wunderground v.1.15,2014-10-20 10:39:00,
2014-10-20 03:44:00,53.3,44.1,29.85,East,85,0.0,0.0,71,0.00,,,0.00,Wunderground v.1.15,2014-10-20 10:44:00,
2014-10-20 03:49:00,53.1,43.9,29.85,East,85,0.0,0.0,71,0.00,,,0.00,Wunderground v.1.15,2014-10-20 10:49:00,
2014-10-20 03:54:00,52.8,43.3,29.84,East,85,0.0,0.0,70,0.00,,,0.00,Wunderground v.1.15,2014-10-20 10:54:00,
2014-10-20 03:59:00,52.7,42.4,29.84,East,85,0.0,2.0,68,0.00,,,0.00,Wunderground v.1.15,2014-10-20 10:59:00,
2014-10-20 04:04:00,52.7,42.4,29.84,East,85,0.0,2.0,68,0.00,,,0.00,Wunderground v.1.15,2014-10-20 11:04:00,
2014-10-20 04:09:00,52.9,42.6,29.84,East,85,1.0,2.0,68,0.00,,,0.00,Wunderground v.1.15,2014-10-20 11:09:00,
2014-10-20 04:14:00,53.0,42.7,29.84,East,85,0.0,1.0,68,0.00,,,0.00,Wunderground v.1.15,2014-10-20 11:14:00,
2014-10-20 04:19:00,53.0,42.7,29.84,East,85,0.0,1.0,68,0.00,,,0.00,Wunderground v.1.15,2014-10-20 11:19:00,
2014-10-20 04:24:00,52.9,43.0,29.84,East,85,0.0,0.0,69,0.00,,,0.00,Wunderground v.1.15,2014-10-20 11:24:00,
2014-10-20 04:29:00,52.8,43.3,29.84,East,85,0.0,0.0,70,0.00,,,0.00,Wunderground v.1.15,2014-10-20 11:29:00,
2014-10-20 04:34:00,52.7,43.6,29.83,East,85,0.0,0.0,71,0.00,,,0.00,Wunderground v.1.15,2014-10-20 11:34:00,
2014-10-20 04:39:00,52.7,44.3,29.83,East,85,0.0,0.0,73,0.00,,,0.00,Wunderground v.1.15,2014-10-20 11:39:00,
2014-10-20 04:44:00,52.6,44.2,29.83,East,85,0.0,1.0,73,0.00,,,0.00,Wunderground v.1.15,2014-10-20 11:44:00,
2014-10-20 04:49:00,52.5,44.4,29.83,East,85,0.0,1.0,74,0.00,,,0.00,Wunderground v.1.15,2014-10-20 11:49:00,
2014-10-20 04:54:00,52.4,44.7,29.83,East,85,0.0,1.0,75,0.00,,,0.00,Wunderground v.1.15,2014-10-20 11:54:00,
2014-10-20 04:59:00,52.3,45.3,29.83,East,85,1.0,2.0,77,0.00,,,0.00,Wunderground v.1.15,2014-10-20 11:59:00,
2014-10-20 05:04:00,52.4,46.1,29.83,East,85,0.0,2.0,79,0.00,,,0.00,Wunderground v.1.15,2014-10-20 12:04:00,
2014-10-20 05:09:00,52.5,46.5,29.83,East,85,1.0,2.0,80,0.00,,,0.00,Wunderground v.1.15,2014-10-20 12:09:00,
2014-10-20 05:14:00,52.5,46.2,29.83,East,86,0.0,1.0,79,0.00,,,0.00,Wunderground v.1.15,2014-10-20 12:14:00,
2014-10-20 05:19:00,52.5,46.2,29.83,East,85,0.0,1.0,79,0.00,,,0.00,Wunderground v.1.15,2014-10-20 12:19:00,
2014-10-20 05:24:00,52.4,46.1,29.83,East,85,0.0,0.0,79,0.00,,,0.00,Wunderground v.1.15,2014-10-20 12:24:00,
2014-10-20 05:29:00,52.3,46.0,29.83,East,85,0.0,0.0,79,0.00,,,0.00,Wunderground v.1.15,2014-10-20 12:29:00,
2014-10-20 05:34:00,52.0,45.4,29.83,East,86,0.0,0.0,78,0.00,,,0.00,Wunderground v.1.15,2014-10-20 12:34:00,
2014-10-20 05:39:00,51.6,44.3,29.83,East,85,0.0,2.0,76,0.00,,,0.00,Wunderground v.1.15,2014-10-20 12:39:00,
2014-10-20 05:44:00,51.5,44.2,29.83,East,86,1.0,2.0,76,0.00,,,0.00,Wunderground v.1.15,2014-10-20 12:44:00,
2014-10-20 05:49:00,51.3,44.0,29.83,East,86,1.0,2.0,76,0.00,,,0.00,Wunderground v.1.15,2014-10-20 12:49:00,
2014-10-20 05:54:00,51.2,43.9,29.83,East,85,1.0,2.0,76,0.00,,,0.00,Wunderground v.1.15,2014-10-20 12:54:00,
2014-10-20 05:59:00,51.3,44.0,29.83,East,85,0.0,2.0,76,0.00,,,0.00,Wunderground v.1.15,2014-10-20 12:59:00,
2014-10-20 06:04:00,51.4,44.1,29.83,East,85,0.0,2.0,76,0.00,,,0.00,Wunderground v.1.15,2014-10-20 13:04:00,
2014-10-20 06:09:00,51.5,44.2,29.83,East,85,0.0,2.0,76,0.00,,,0.00,Wunderground v.1.15,2014-10-20 13:09:00,
2014-10-20 06:14:00,51.6,44.3,29.83,East,86,0.0,2.0,76,0.00,,,0.00,Wunderground v.1.15,2014-10-20 13:14:00,
2014-10-20 06:19:00,51.6,43.9,29.83,East,85,0.0,2.0,75,0.00,,,0.00,Wunderground v.1.15,2014-10-20 13:19:00,
2014-10-20 06:24:00,51.5,43.8,29.83,East,85,0.0,0.0,75,0.00,,,0.00,Wunderground v.1.15,2014-10-20 13:24:00,
2014-10-20 06:29:00,51.3,44.0,29.84,East,85,0.0,0.0,76,0.00,,,0.00,Wunderground v.1.15,2014-10-20 13:29:00,
2014-10-20 06:34:00,51.1,44.1,29.84,East,85,0.0,0.0,77,0.00,,,0.00,Wunderground v.1.15,2014-10-20 13:34:00,
2014-10-20 06:39:00,50.9,44.3,29.84,East,85,0.0,0.0,78,0.00,,,0.00,Wunderground v.1.15,2014-10-20 13:39:00,
2014-10-20 06:44:00,50.8,44.5,29.84,East,85,0.0,0.0,79,0.00,,,0.00,Wunderground v.1.15,2014-10-20 13:44:00,
2014-10-20 06:49:00,50.8,44.5,29.84,East,85,0.0,0.0,79,0.00,,,0.00,Wunderground v.1.15,2014-10-20 13:49:00,
2014-10-20 06:54:00,50.9,44.6,29.84,East,85,0.0,2.0,79,0.00,,,0.00,Wunderground v.1.15,2014-10-20 13:54:00,
2014-10-20 06:59:00,50.9,44.6,29.84,East,85,0.0,2.0,79,0.00,,,0.00,Wunderground v.1.15,2014-10-20 13:59:00,
2014-10-20 07:04:00,50.9,44.6,29.84,East,85,0.0,0.0,79,0.00,,,0.00,Wunderground v.1.15,2014-10-20 14:04:00,
2014-10-20 07:09:00,50.9,45.3,29.85,East,85,0.0,0.0,81,0.00,,,0.00,Wunderground v.1.15,2014-10-20 14:09:00,
2014-10-20 07:14:00,50.9,45.3,29.85,East,85,1.0,1.0,81,0.00,,,0.00,Wunderground v.1.15,2014-10-20 14:14:00,
2014-10-20 07:19:00,50.9,45.3,29.85,East,85,0.0,1.0,81,0.00,,,0.00,Wunderground v.1.15,2014-10-20 14:19:00,
2014-10-20 07:24:00,50.8,45.2,29.85,East,85,0.0,0.0,81,0.00,,,0.00,Wunderground v.1.15,2014-10-20 14:24:00,
2014-10-20 07:29:00,50.7,45.4,29.85,East,85,0.0,0.0,82,0.00,,,0.00,Wunderground v.1.15,2014-10-20 14:29:00,
2014-10-20 07:34:00,50.6,45.3,29.85,East,85,0.0,0.0,82,0.00,,,0.00,Wunderground v.1.15,2014-10-20 14:34:00,
2014-10-20 07:39:00,50.5,45.2,29.86,East,85,0.0,0.0,82,0.00,,,0.00,Wunderground v.1.15,2014-10-20 14:39:00,
2014-10-20 07:44:00,50.5,45.2,29.85,East,85,0.0,0.0,82,0.00,,,0.00,Wunderground v.1.15,2014-10-20 14:44:00,
2014-10-20 07:49:00,50.5,44.9,29.86,East,85,0.0,0.0,81,0.00,,,0.00,Wunderground v.1.15,2014-10-20 14:49:00,
2014-10-20 07:54:00,50.6,45.0,29.86,East,85,0.0,0.0,81,0.00,,,0.00,Wunderground v.1.15,2014-10-20 14:54:00,
2014-10-20 07:59:00,50.6,45.3,29.86,East,85,0.0,0.0,82,0.00,,,0.00,Wunderground v.1.15,2014-10-20 14:59:00,
2014-10-20 08:04:00,50.6,45.3,29.86,East,85,0.0,0.0,82,0.00,,,0.00,Wunderground v.1.15,2014-10-20 15:04:00,
2014-10-20 08:09:00,50.8,45.5,29.87,East,85,1.0,1.0,82,0.00,,,0.00,Wunderground v.1.15,2014-10-20 15:09:00,
2014-10-20 08:14:00,51.0,45.7,29.87,East,85,0.0,1.0,82,0.00,,,0.00,Wunderground v.1.15,2014-10-20 15:14:00,
2014-10-20 08:19:00,51.3,46.0,29.87,East,85,0.0,1.0,82,0.00,,,0.00,Wunderground v.1.15,2014-10-20 15:19:00,
2014-10-20 08:24:00,51.6,46.3,29.87,East,85,0.0,1.0,82,0.00,,,0.00,Wunderground v.1.15,2014-10-20 15:24:00,
2014-10-20 08:29:00,51.8,46.5,29.87,East,86,0.0,1.0,82,0.00,,,0.00,Wunderground v.1.15,2014-10-20 15:29:00,
2014-10-20 08:34:00,52.1,47.1,29.87,East,86,0.0,2.0,83,0.00,,,0.00,Wunderground v.1.15,2014-10-20 15:34:00,
2014-10-20 08:39:00,52.4,47.4,29.87,East,85,0.0,2.0,83,0.00,,,0.00,Wunderground v.1.15,2014-10-20 15:39:00,
2014-10-20 08:44:00,52.7,47.7,29.87,East,86,0.0,2.0,83,0.00,,,0.00,Wunderground v.1.15,2014-10-20 15:44:00,
2014-10-20 08:49:00,53.1,48.1,29.87,East,85,0.0,2.0,83,0.00,,,0.00,Wunderground v.1.15,2014-10-20 15:49:00,
2014-10-20 08:54:00,53.5,47.8,29.87,East,85,0.0,2.0,81,0.00,,,0.00,Wunderground v.1.15,2014-10-20 15:54:00,
2014-10-20 09:00:00,54.3,47.9,29.88,East,85,1.0,2.0,79,0.00,,,0.00,Wunderground v.1.15,2014-10-20 16:00:00,
2014-10-20 09:05:00,55.0,47.9,29.88,East,86,2.0,2.0,77,0.00,,,0.00,Wunderground v.1.15,2014-10-20 16:05:00,
2014-10-20 09:10:00,55.7,47.9,29.88,ESE,109,0.0,4.0,75,0.00,,,0.00,Wunderground v.1.15,2014-10-20 16:10:00,
2014-10-20 09:15:00,56.2,48.4,29.88,SE,140,1.0,5.0,75,0.00,,,0.00,Wunderground v.1.15,2014-10-20 16:15:00,
2014-10-20 09:20:00,56.5,49.0,29.88,SE,136,4.0,5.0,76,0.00,,,0.00,Wunderground v.1.15,2014-10-20 16:20:00,
2014-10-20 09:25:00,56.7,49.2,29.87,SSE,149,5.0,7.0,76,0.00,,,0.00,Wunderground v.1.15,2014-10-20 16:25:00,
2014-10-20 09:30:00,56.6,48.4,29.88,SSE,155,4.0,7.0,74,0.00,,,0.00,Wunderground v.1.15,2014-10-20 16:30:00,
2014-10-20 09:35:00,56.6,48.8,29.88,SSE,153,4.0,6.0,75,0.00,,,0.00,Wunderground v.1.15,2014-10-20 16:35:00,
2014-10-20 09:40:00,56.6,48.4,29.88,SE,146,4.0,6.0,74,0.00,,,0.00,Wunderground v.1.15,2014-10-20 16:40:00,
2014-10-20 09:45:00,56.8,48.6,29.88,SSE,156,0.0,5.0,74,0.00,,,0.00,Wunderground v.1.15,2014-10-20 16:45:00,
2014-10-20 09:50:00,57.3,48.7,29.88,SSE,159,2.0,5.0,73,0.00,,,0.00,Wunderground v.1.15,2014-10-20 16:50:00,
2014-10-20 09:55:00,57.8,48.8,29.88,SSE,163,1.0,2.0,72,0.00,,,0.00,Wunderground v.1.15,2014-10-20 16:55:00,
2014-10-20 10:00:00,58.3,48.9,29.88,SSE,161,2.0,2.0,71,0.00,,,0.00,Wunderground v.1.15,2014-10-20 17:00:00,
2014-10-20 10:05:00,58.8,48.6,29.88,SSE,157,4.0,5.0,69,0.00,,,0.00,Wunderground v.1.15,2014-10-20 17:05:00,
2014-10-20 10:10:00,59.0,48.8,29.88,SSE,159,4.0,5.0,69,0.00,,,0.00,Wunderground v.1.15,2014-10-20 17:10:00,
2014-10-20 10:15:00,59.6,49.4,29.88,South,175,4.0,5.0,69,0.00,,,0.00,Wunderground v.1.15,2014-10-20 17:15:00,
2014-10-20 10:20:00,60.2,49.2,29.88,SSE,163,2.0,6.0,67,0.00,,,0.00,Wunderground v.1.15,2014-10-20 17:20:00,
2014-10-20 10:25:00,60.6,49.6,29.88,SSE,160,2.0,5.0,67,0.00,,,0.00,Wunderground v.1.15,2014-10-20 17:25:00,
2014-10-20 10:30:00,61.1,49.7,29.88,South,174,1.0,5.0,66,0.00,,,0.00,Wunderground v.1.15,2014-10-20 17:30:00,
2014-10-20 10:35:00,61.5,49.6,29.88,SE,143,4.0,4.0,65,0.00,,,0.00,Wunderground v.1.15,2014-10-20 17:35:00,
2014-10-20 10:40:00,61.7,49.4,29.88,SSE,167,2.0,4.0,64,0.00,,,0.00,Wunderground v.1.15,2014-10-20 17:40:00,
2014-10-20 10:45:00,61.9,49.6,29.88,South,170,2.0,5.0,64,0.00,,,0.00,Wunderground v.1.15,2014-10-20 17:45:00,
2014-10-20 10:50:00,62.0,49.3,29.88,SSW,192,2.0,5.0,63,0.00,,,0.00,Wunderground v.1.15,2014-10-20 17:50:00,
2014-10-20 10:55:00,62.1,49.4,29.89,South,182,1.0,4.0,63,0.00,,,0.00,Wunderground v.1.15,2014-10-20 17:55:00,
2014-10-20 11:00:00,62.4,49.6,29.89,SSE,156,2.0,4.0,63,0.00,,,0.00,Wunderground v.1.15,2014-10-20 18:00:00,
2014-10-20 11:05:00,62.9,50.1,29.89,SSE,161,1.0,5.0,63,0.00,,,0.00,Wunderground v.1.15,2014-10-20 18:05:00,
2014-10-20 11:10:00,63.3,50.1,29.89,SSE,165,1.0,6.0,62,0.00,,,0.00,Wunderground v.1.15,2014-10-20 18:10:00,
2014-10-20 11:15:00,63.6,50.3,29.89,SSW,198,3.0,6.0,62,0.00,,,0.00,Wunderground v.1.15,2014-10-20 18:15:00,
2014-10-20 11:19:00,63.6,49.9,29.89,South,179,4.0,7.0,61,0.00,,,0.00,Wunderground v.1.15,2014-10-20 18:19:00,
2014-10-20 11:24:00,63.2,49.1,29.88,SSE,148,4.0,7.0,60,0.00,,,0.00,Wunderground v.1.15,2014-10-20 18:24:00,
2014-10-20 11:30:00,62.9,49.7,29.88,SSE,157,4.0,7.0,62,0.00,,,0.00,Wunderground v.1.15,2014-10-20 18:30:00,
2014-10-20 11:35:00,62.9,49.7,29.88,SSE,165,4.0,7.0,62,0.00,,,0.00,Wunderground v.1.15,2014-10-20 18:35:00,
2014-10-20 11:40:00,63.0,50.2,29.88,SSE,151,2.0,7.0,63,0.00,,,0.00,Wunderground v.1.15,2014-10-20 18:40:00,
2014-10-20 11:45:00,63.3,50.1,29.88,South,182,2.0,5.0,62,0.00,,,0.00,Wunderground v.1.15,2014-10-20 18:45:00,
2014-10-20 11:50:00,62.9,50.1,29.88,SE,137,5.0,5.0,63,0.00,,,0.00,Wunderground v.1.15,2014-10-20 18:50:00,
2014-10-20 11:55:00,62.6,50.2,29.88,SE,146,6.0,9.0,64,0.00,,,0.00,Wunderground v.1.15,2014-10-20 18:55:00,
2014-10-20 12:00:00,62.4,50.5,29.88,SE,133,1.0,4.0,65,0.00,,,0.00,Wunderground v.1.15,2014-10-20 19:00:00,
2014-10-20 12:05:00,62.4,50.5,29.88,South,170,2.0,7.0,65,0.00,,,0.00,Wunderground v.1.15,2014-10-20 19:05:00,
2014-10-20 12:10:00,62.5,50.6,29.88,SSE,164,1.0,2.0,65,0.00,,,0.00,Wunderground v.1.15,2014-10-20 19:10:00,
2014-10-20 12:15:00,62.4,50.5,29.88,SSE,159,2.0,5.0,65,0.00,,,0.00,Wunderground v.1.15,2014-10-20 19:15:00,
2014-10-20 12:20:00,62.2,50.7,29.88,South,169,4.0,4.0,66,0.00,,,0.00,Wunderground v.1.15,2014-10-20 19:20:00,
2014-10-20 12:25:00,62.1,50.2,29.88,SSE,159,5.0,5.0,65,0.00,,,0.00,Wunderground v.1.15,2014-10-20 19:25:00,
2014-10-20 12:30:00,62.0,50.1,29.88,SSE,158,2.0,7.0,65,0.00,,,0.00,Wunderground v.1.15,2014-10-20 19:30:00,
2014-10-20 12:35:00,61.9,50.4,29.87,SE,139,4.0,7.0,66,0.00,,,0.00,Wunderground v.1.15,2014-10-20 19:35:00,
2014-10-20 12:40:00,61.8,49.9,29.87,SE,127,4.0,4.0,65,0.00,,,0.00,Wunderground v.1.15,2014-10-20 19:40:00,
2014-10-20 12:45:00,61.6,49.7,29.87,South,178,2.0,5.0,65,0.00,,,0.00,Wunderground v.1.15,2014-10-20 19:45:00,
2014-10-20 12:50:00,61.7,50.2,29.87,East,87,2.0,2.0,66,0.00,,,0.00,Wunderground v.1.15,2014-10-20 19:50:00,
2014-10-20 12:55:00,61.8,50.3,29.87,South,170,2.0,4.0,66,0.00,,,0.00,Wunderground v.1.15,2014-10-20 19:55:00,
2014-10-20 13:00:00,61.7,49.8,29.87,SSW,192,0.0,2.0,65,0.00,,,0.00,Wunderground v.1.15,2014-10-20 20:00:00,
2014-10-20 13:05:00,61.6,49.7,29.87,SSE,161,2.0,5.0,65,0.00,,,0.00,Wunderground v.1.15,2014-10-20 20:05:00,
2014-10-20 13:10:00,61.7,49.8,29.86,South,175,2.0,2.0,65,0.00,,,0.00,Wunderground v.1.15,2014-10-20 20:10:00,
2014-10-20 13:15:00,61.5,49.6,29.86,South,180,1.0,6.0,65,0.00,,,0.00,Wunderground v.1.15,2014-10-20 20:15:00,
2014-10-20 13:20:00,61.5,49.2,29.87,SE,141,2.0,4.0,64,0.00,,,0.00,Wunderground v.1.15,2014-10-20 20:20:00,
2014-10-20 13:25:00,61.4,49.9,29.86,SW,218,3.0,5.0,66,0.00,,,0.00,Wunderground v.1.15,2014-10-20 20:25:00,
2014-10-20 13:30:00,61.7,49.8,29.86,SSE,160,1.0,2.0,65,0.00,,,0.00,Wunderground v.1.15,2014-10-20 20:30:00,
2014-10-20 13:35:00,62.0,49.7,29.86,ESE,123,2.0,5.0,64,0.00,,,0.00,Wunderground v.1.15,2014-10-20 20:35:00,
2014-10-20 13:40:00,62.0,50.1,29.86,South,176,1.0,2.0,65,0.00,,,0.00,Wunderground v.1.15,2014-10-20 20:40:00,
2014-10-20 13:45:00,62.1,49.8,29.86,SE,138,4.0,6.0,64,0.00,,,0.00,Wunderground v.1.15,2014-10-20 20:45:00,
2014-10-20 13:50:00,61.8,49.5,29.86,South,184,2.0,4.0,64,0.00,,,0.00,Wunderground v.1.15,2014-10-20 20:50:00,
2014-10-20 13:55:00,61.7,49.8,29.86,South,169,1.0,6.0,65,0.00,,,0.00,Wunderground v.1.15,2014-10-20 20:55:00,
2014-10-20 14:00:00,61.6,49.7,29.86,South,180,2.0,3.0,65,0.00,,,0.00,Wunderground v.1.15,2014-10-20 21:00:00,
2014-10-20 14:05:00,61.3,49.8,29.86,SSE,156,2.0,5.0,66,0.00,,,0.00,Wunderground v.1.15,2014-10-20 21:05:00,
2014-10-20 14:10:00,61.4,50.3,29.85,South,174,4.0,5.0,67,0.00,,,0.00,Wunderground v.1.15,2014-10-20 21:10:00,
2014-10-20 14:15:00,61.7,49.8,29.85,South,186,3.0,5.0,65,0.00,,,0.00,Wunderground v.1.15,2014-10-20 21:15:00,
2014-10-20 14:21:00,61.7,50.2,29.85,SSE,159,0.0,4.0,66,0.00,,,0.00,Wunderground v.1.15,2014-10-20 21:21:00,
2014-10-20 14:26:00,61.9,50.4,29.86,SSW,207,3.0,4.0,66,0.00,,,0.00,Wunderground v.1.15,2014-10-20 21:26:00,
2014-10-20 14:31:00,61.5,49.6,29.86,South,170,1.0,4.0,65,0.00,,,0.00,Wunderground v.1.15,2014-10-20 21:31:00,